Hourly Data Report for October 19, 2015

All times are specified in Local Standard Time (LST). Add 1 hour to adjust for Daylight Saving Time where and when it is observed.

ARVIAT A
NUNAVUT

61°05'38.000" N
94°04'18.000" W
10.40 m
2300427
71174
YEK

Related Data

No related data is available for this station

Download Data

Hourly Data (October 2015)
Hourly Data Report for October 19, 2015
Temp Definition
°C
Dew Point Temp Definition
°C
Rel Hum Definition
%
Wind Dir Definition
10's deg

Wind Spd Definition
km/h
Visibility Definition
km
Stn Press Definition
kPa
Hmdx Definition


Wind Chill Definition


Weather Definition


TIME
00:00 Legend Double Dagger -5.2 -5.9 95 35 65 6.4 99.08   -16 Snow
01:00 Legend Double Dagger -7.0 -7.7 95 34 65 2.4 99.20   -19 Snow
02:00 Legend Double Dagger -7.5 -8.3 94 34 59 6.4 99.33   -19 Fog
03:00 Legend Double Dagger -8.2 -8.9 95 33 68 1.2 99.42   -21 Snow
04:00 Legend Double Dagger -8.5 -9.2 95 32 63 1.6 99.48   -21 Snow
05:00 Legend Double Dagger -7.6 -8.0 97 32 61 0.8 99.53   -19 Moderate Snow
06:00 Legend Double Dagger -8.5 -9.2 95 32 65 0.8 99.59   -21 Moderate Snow
07:00 Legend Double Dagger -9.3 -10.0 95 32 68 0.8 99.58   -22 Moderate Snow
08:00 Legend Double Dagger -8.5 -8.9 97 32 72 0.2 99.57   -21 Heavy Snow
09:00 Legend Double Dagger -7.1 -7.4 98 33 80 0.0 99.57   -20 Heavy Snow
10:00 Legend Double Dagger -5.1 -5.2 99 34 63 0.2 99.75   -16 Heavy Snow
11:00 Legend Double Dagger -4.0 -4.1 99 35 55 0.4 99.97   -14 Heavy Snow
12:00 Legend Double Dagger -3.9 -4.4 96 35 61 1.2 100.22   -14 Snow
13:00 Legend Double Dagger -4.3 -5.1 94 35 52 4.0 100.46   -14 Snow
14:00 Legend Double Dagger -5.1 -6.1 93 35 54 16.1 100.69   -15 LegendNANA
15:00 Legend Double Dagger -5.8 -6.8 93 34 54 4.8 100.86   -16 Snow
16:00 Legend Double Dagger -6.7 -7.8 92 35 50 16.1 101.04   -17 LegendNANA
17:00 Legend Double Dagger -7.6 -8.8 91 34 46 16.1 101.20   -18 LegendNANA
18:00 Legend Double Dagger -8.8 -10.2 90 34 43 16.1 101.34   -19 LegendNANA
19:00 Legend Double Dagger -8.9 -10.4 89 34 39 16.1 101.46   -19 LegendNANA
20:00 Legend Double Dagger -9.4 -11.2 87 34 50 16.1 101.54   -21 LegendNANA
21:00 Legend Double Dagger -10.0 -11.5 89 34 37 16.1 101.62   -20 LegendNANA
22:00 Legend Double Dagger -10.9 -12.2 91 33 32 16.1 101.73   -21 LegendNANA
23:00 Legend Double Dagger -11.4 -13.0 88 33 32 16.1 101.79   -22 LegendNANA

Notes on Data Quality.

Legend

  • E = Estimated
  • M = Missing
  • NA = Not Available
  • ‡ = Partner data that is not subject to review by the National Climate Archives
Date modified: